Weather History for KILG - July, 2013

Change the Weather History Date:

Wednesday, July 10, 2013

  Actual Average Record
Temperature  
Mean Temperature 82 °F 77 °F  
Max Temperature 88 °F 86 °F 103 °F (1936)
Min Temperature 75 °F 68 °F 54 °F (1963)
Degree Days  
Heating Degree Days 0 0  
Month to date heating degree days 0 0  
Since 1 June heating degree days 0 15  
Since 1 July heating degree days 0 0  
Cooling Degree Days 17 12  
Month to date cooling degree days 159 116  
Year to date cooling degree days 519 426  
Since 1 June cooling degree days 412 347  
Growing Degree Days 32 (Base 50)    
Moisture  
Dew Point 73 °F    
Average Humidity 77    
Maximum Humidity 94    
Minimum Humidity 59    
Precipitation  
Precipitation 0.15 in 0.15 in 1.95 in (1917)
Month to date precipitation 0.39 1.44  
Year to date precipitation 27.45 22.38  
Snow  
Snow 0.00 in 0.00 in 0.00 in (1894)
Month to date snowfall 0.0 0.0  
Since 1 June snowfall 0.0 0.0  
Since 1 July snowfall 0.0 0.0  
Snow Depth 0.00 in    
Sea Level Pressure  
Sea Level Pressure 29.94 in    
Wind  
Wind Speed 8 mph (SW)    
Max Wind Speed 18 mph    
Max Gust Speed 23 mph    
Visibility 9 miles    
Events Rain    
T = Trace of Precipitation, MM = Missing Value Source: NWS Daily Summary

Daily Weather History Graph

Daily Weather History Graph

Search for Another Location

Airport or City:

Trip Planner

Search our weather history database for the weather conditions in past years. The results will help you decide how hot, cold, wet, or windy it might be!

Date:

Astronomy

Jul. 10, 2013 Rise Set
Actual Time 5:43 AM EDT 8:31 PM EDT
Civil Twilight 5:11 AM EDT 9:03 PM EDT
Nautical Twilight 4:31 AM EDT 9:43 PM EDT
Astronomical Twilight 3:45 AM EDT 10:29 PM EDT
Moon 8:01 AM EDT (7/10) 9:40 PM EDT (7/10)
Length of Visible Light 15h 51m
Length of Day
14h 47m
Waxing Crescent, 5% of the Moon is Illuminated
Jul 10
Waxing Crescent
Jul 15
First Quarter
Jul 22
Full
Jul 29
Last Quarter
Aug 6
New

Hourly Weather History & Observations

Time (EDT) Temp. Heat Index Dew Point Humidity Pressure Visibility Wind Dir Wind Speed Gust Speed Precip Events Conditions
12:51 AM 78.1 °F - 72.0 °F 81% 30.02 in 8.0 mi South 5.8 mph - N/A   Partly Cloudy
1:51 AM 78.1 °F - 73.0 °F 84% 30.00 in 9.0 mi South 8.1 mph - N/A   Mostly Cloudy
2:51 AM 77.0 °F - 73.0 °F 88% 29.99 in 10.0 mi South 8.1 mph - N/A   Mostly Cloudy
3:51 AM 75.9 °F - 73.0 °F 91% 29.98 in 10.0 mi South 5.8 mph - N/A   Overcast
4:51 AM 75.9 °F - 72.0 °F 87% 29.97 in 9.0 mi Calm Calm - N/A   Clear
5:51 AM 75.9 °F - 73.0 °F 91% 29.98 in 8.0 mi SSW 3.5 mph - N/A   Mostly Cloudy
6:51 AM 75.9 °F - 73.0 °F 91% 29.97 in 6.0 mi South 5.8 mph - N/A   Partly Cloudy
7:51 AM 79.0 °F - 73.9 °F 84% 29.97 in 10.0 mi SW 8.1 mph - N/A   Partly Cloudy
8:51 AM 82.0 °F 88.6 °F 75.0 °F 79% 29.97 in 10.0 mi WSW 9.2 mph - N/A   Scattered Clouds
9:51 AM 82.9 °F 88.8 °F 73.0 °F 72% 29.97 in 10.0 mi West 8.1 mph - N/A   Scattered Clouds
10:51 AM 87.1 °F 94.5 °F 73.0 °F 63% 29.97 in 10.0 mi West 9.2 mph - N/A   Mostly Cloudy
11:51 AM 84.0 °F 90.2 °F 73.0 °F 69% 29.97 in 10.0 mi WSW 11.5 mph - 0.00 in   Mostly Cloudy
12:33 PM 80.6 °F 84.6 °F 71.6 °F 74% 29.98 in 1.5 mi WSW 13.8 mph 23.0 mph 0.03 in Rain Heavy Rain
12:43 PM 78.8 °F - 73.4 °F 83% 29.98 in 7.0 mi SW 6.9 mph - 0.15 in Rain Light Rain
12:45 PM 78.8 °F - 73.4 °F 83% 29.98 in 7.0 mi WSW 6.9 mph - 0.15 in Rain Light Rain
12:51 PM 80.1 °F 85.1 °F 75.0 °F 85% 29.97 in 9.0 mi WSW 5.8 mph - 0.15 in Rain Light Rain
12:53 PM 80.6 °F 86.2 °F 75.2 °F 84% 29.98 in 9.0 mi West 10.4 mph - 0.00 in Rain Light Rain
1:51 PM 80.1 °F 84.5 °F 73.9 °F 81% 29.94 in 10.0 mi SSW 5.8 mph - 0.00 in   Partly Cloudy
2:51 PM 84.0 °F 91.9 °F 75.0 °F 74% 29.90 in 10.0 mi SW 9.2 mph - N/A   Clear
3:51 PM 87.1 °F 95.4 °F 73.9 °F 65% 29.89 in 10.0 mi WSW 8.1 mph - N/A   Partly Cloudy
4:51 PM 88.0 °F 93.8 °F 71.1 °F 57% 29.87 in 10.0 mi WSW 13.8 mph - N/A   Partly Cloudy
5:51 PM 88.0 °F 95.6 °F 73.0 °F 61% 29.86 in 10.0 mi SSW 11.5 mph 17.3 mph N/A   Mostly Cloudy
6:51 PM 86.0 °F 92.2 °F 72.0 °F 63% 29.87 in 10.0 mi SW 10.4 mph - N/A   Clear
7:51 PM 84.9 °F 90.7 °F 72.0 °F 65% 29.88 in 10.0 mi SW 10.4 mph - N/A   Scattered Clouds
8:51 PM 82.9 °F 88.8 °F 73.0 °F 72% 29.88 in 10.0 mi SSW 9.2 mph - N/A   Clear
9:51 PM 82.0 °F 87.9 °F 73.9 °F 76% 29.89 in 10.0 mi SW 9.2 mph - N/A   Partly Cloudy
10:51 PM 81.0 °F 84.9 °F 71.1 °F 72% 29.87 in 10.0 mi SW 10.4 mph - N/A   Clear
11:51 PM 80.1 °F 83.6 °F 71.1 °F 74% 29.86 in 10.0 mi SW 6.9 mph - N/A   Clear